Weather History for KTKV - June, 2013

Change the Weather History Date:

Thursday, June 13, 2013

  Actual Average (KRHI) Record (KRHI)
Temperature  
Mean Temperature 60 °F 62 °F  
Max Temperature 72 °F 74 °F 93 °F (1956)
Min Temperature 47 °F 50 °F 34 °F (1927)
Degree Days  
Heating Degree Days 6 5  
Month to date heating degree days 82  
Since 1 June heating degree days 82  
Since 1 July heating degree days 8968  
Cooling Degree Days 0 1  
Month to date cooling degree days 13  
Year to date cooling degree days 25  
Since 1 June cooling degree days 13  
Growing Degree Days 10 (Base 50)    
Moisture  
Dew Point 49 °F    
Average Humidity 70    
Maximum Humidity 96    
Minimum Humidity 43    
Precipitation  
Precipitation 0.00 in 0.13 in 4.64 in (1981)
Month to date precipitation 1.65  
Year to date precipitation 11.33  
Snow  
Snow 0.00 in - 0.00 in ()
Month to date snowfall  
Since 1 June snowfall  
Since 1 July snowfall  
Snow Depth -    
Sea Level Pressure  
Sea Level Pressure 30.03 in    
Wind  
Wind Speed 4 mph (North)    
Max Wind Speed 14 mph    
Max Gust Speed 22 mph    
Visibility 10 miles    
Events      
T = Trace of Precipitation, MM = Missing Value Source: NWS Daily Summary

Daily Weather History Graph

Daily Weather History Graph

Search for Another Location

Airport or City:

Trip Planner

Search our weather history database for the weather conditions in past years. The results will help you decide how hot, cold, wet, or windy it might be!

Date:

Astronomy

Jun. 13, 2013 Rise Set
Actual Time 5:10 AM CDT 8:48 PM CDT
Civil Twilight 4:32 AM CDT 9:26 PM CDT
Nautical Twilight 3:41 AM CDT 10:17 PM CDT
Astronomical Twilight 2:34 AM CDT 11:25 PM CDT
Moon 9:58 AM CDT (6/13) 11:42 PM CDT (6/13)
Length of Visible Light 16h 54m
Length of Day
15h 38m
Waxing Crescent, 22% of the Moon is Illuminated
Jun 13
Waxing Crescent
Jun 16
First Quarter
Jun 23
Full
Jun 29
Last Quarter
Jul 8
New

Hourly Weather History & Observations

Time (CDT) Temp. Dew Point Humidity Pressure Visibility Wind Dir Wind Speed Gust Speed Precip Events Conditions
12:15 AM 52.9 °F 51.6 °F 95% 29.86 in 10.0 mi Calm Calm - N/A   Clear
12:35 AM 52.0 °F 50.9 °F 96% 29.87 in 10.0 mi NNW 3.5 mph - N/A   Scattered Clouds
12:55 AM 54.0 °F 52.9 °F 96% 29.88 in 10.0 mi Calm Calm - N/A   Mostly Cloudy
1:15 AM 54.1 °F 53.1 °F 96% 29.89 in 10.0 mi Calm Calm - N/A   Overcast
1:35 AM 54.0 °F 52.0 °F 93% 29.90 in 10.0 mi Calm Calm - N/A   Scattered Clouds
1:55 AM 54.7 °F 50.9 °F 87% 29.91 in 10.0 mi Calm Calm - N/A   Scattered Clouds
2:15 AM 54.7 °F 49.5 °F 83% 29.91 in 10.0 mi Calm Calm - N/A   Mostly Cloudy
2:35 AM 54.0 °F 48.7 °F 82% 29.91 in 10.0 mi Calm Calm - N/A   Scattered Clouds
2:55 AM 53.1 °F 48.2 °F 84% 29.92 in 10.0 mi Calm Calm - N/A   Clear
3:15 AM 52.5 °F 47.5 °F 83% 29.92 in 10.0 mi NNW 3.5 mph - N/A   Clear
3:35 AM 52.9 °F 47.8 °F 83% 29.93 in 10.0 mi NNW 3.5 mph - N/A   Clear
3:55 AM 53.1 °F 47.3 °F 81% 29.93 in 10.0 mi North 4.6 mph - N/A   Clear
4:15 AM 51.1 °F 46.6 °F 85% 29.93 in 10.0 mi Calm Calm - N/A   Clear
4:35 AM 50.9 °F 46.2 °F 84% 29.95 in 10.0 mi NW 3.5 mph - N/A   Clear
4:55 AM 50.2 °F 46.0 °F 86% 29.95 in 10.0 mi NW 3.5 mph - N/A   Clear
5:15 AM 50.9 °F 46.4 °F 85% 29.97 in 10.0 mi NNW 3.5 mph - N/A   Clear
5:35 AM 50.9 °F 46.6 °F 85% 29.97 in 10.0 mi NNW 3.5 mph - N/A   Clear
5:55 AM 51.3 °F 47.3 °F 86% 29.98 in 10.0 mi NNW 4.6 mph - N/A   Clear
6:15 AM 52.3 °F 48.6 °F 87% 29.98 in 10.0 mi NNW 3.5 mph - N/A   Clear
6:35 AM 53.6 °F 49.3 °F 85% 29.99 in 10.0 mi North 4.6 mph - N/A   Clear
6:55 AM 54.9 °F 50.2 °F 84% 30.00 in 10.0 mi North 6.9 mph - N/A   Clear
7:15 AM 55.8 °F 50.9 °F 84% 30.00 in 10.0 mi North 4.6 mph - N/A   Clear
7:35 AM 56.7 °F 51.3 °F 82% 30.01 in 10.0 mi NNW 8.1 mph - N/A   Clear
7:55 AM 56.5 °F 51.3 °F 83% 30.01 in 10.0 mi North 6.9 mph - N/A   Clear
8:15 AM 56.7 °F 51.1 °F 82% 30.02 in 10.0 mi NNE 9.2 mph 16.1 mph N/A   Scattered Clouds
8:35 AM 57.2 °F 50.5 °F 78% 30.02 in 10.0 mi NW 10.4 mph - N/A   Mostly Cloudy
8:55 AM 57.6 °F 50.2 °F 76% 30.04 in 10.0 mi NNW 10.4 mph 17.3 mph N/A   Mostly Cloudy
9:15 AM 59.4 °F 51.1 °F 74% 30.04 in 10.0 mi NNW 11.5 mph 18.4 mph N/A   Overcast
9:35 AM 60.4 °F 50.9 °F 71% 30.04 in 10.0 mi North 8.1 mph - N/A   Scattered Clouds
9:55 AM 60.4 °F 50.2 °F 69% 30.04 in 10.0 mi NNW 10.4 mph - N/A   Mostly Cloudy
10:15 AM 62.2 °F 50.9 °F 66% 30.04 in 10.0 mi NNW 11.5 mph - N/A   Mostly Cloudy
10:35 AM 63.3 °F 51.3 °F 65% 30.04 in 10.0 mi North 9.2 mph - N/A   Scattered Clouds
10:55 AM 62.2 °F 49.8 °F 64% 30.05 in 10.0 mi North 11.5 mph 16.1 mph N/A   Scattered Clouds
11:15 AM 64.2 °F 50.9 °F 62% 30.04 in 10.0 mi NNE 6.9 mph 18.4 mph N/A   Scattered Clouds
11:35 AM 65.5 °F 50.7 °F 59% 30.04 in 10.0 mi NNW 9.2 mph 17.3 mph N/A   Clear
11:55 AM 65.7 °F 50.5 °F 58% 30.05 in 10.0 mi NNW 11.5 mph 16.1 mph N/A   Clear
12:15 PM 67.6 °F 51.4 °F 56% 30.05 in 10.0 mi NNE 8.1 mph - N/A   Clear
12:35 PM 67.6 °F 49.3 °F 52% 30.05 in 10.0 mi North 10.4 mph 19.6 mph N/A   Clear
12:55 PM 68.9 °F 49.5 °F 50% 30.06 in 10.0 mi NNW 5.8 mph 17.3 mph N/A   Clear
1:15 PM 69.4 °F 48.6 °F 47% 30.06 in 10.0 mi NNE 13.8 mph 21.9 mph N/A   Clear
1:35 PM 70.2 °F 48.2 °F 46% 30.06 in 10.0 mi North 9.2 mph 16.1 mph N/A   Clear
1:55 PM 70.5 °F 48.6 °F 46% 30.06 in 10.0 mi North 10.4 mph 17.3 mph N/A   Clear
2:15 PM 69.8 °F 46.8 °F 44% 30.07 in 10.0 mi North 10.4 mph 17.3 mph N/A   Clear
2:35 PM 70.9 °F 47.3 °F 43% 30.07 in 10.0 mi NNW 5.8 mph - N/A   Clear
2:55 PM 71.4 °F 47.8 °F 43% 30.07 in 10.0 mi North 8.1 mph - N/A   Clear
3:15 PM 71.4 °F 48.2 °F 44% 30.08 in 10.0 mi North 10.4 mph - N/A   Scattered Clouds
3:55 PM 71.2 °F 47.8 °F 43% 30.08 in 10.0 mi North 11.5 mph 18.4 mph N/A   Clear
4:15 PM 71.4 °F 48.9 °F 45% 30.08 in 10.0 mi North 6.9 mph - N/A   Scattered Clouds
4:35 PM 71.1 °F 49.1 °F 46% 30.08 in 10.0 mi North 6.9 mph - N/A   Scattered Clouds
4:55 PM 70.9 °F 48.6 °F 45% 30.08 in 10.0 mi NNE 8.1 mph - N/A   Clear
5:15 PM 70.5 °F 49.1 °F 47% 30.09 in 10.0 mi North 4.6 mph - N/A   Clear
5:35 PM 70.7 °F 49.1 °F 46% 30.09 in 10.0 mi ENE 10.4 mph 16.1 mph N/A   Clear
5:55 PM 70.3 °F 49.6 °F 48% 30.08 in 10.0 mi North 6.9 mph - N/A   Clear
6:15 PM 69.8 °F 49.5 °F 48% 30.08 in 10.0 mi North 8.1 mph - N/A   Clear
6:35 PM 69.3 °F 49.6 °F 50% 30.09 in 10.0 mi NE 9.2 mph - N/A   Clear
6:55 PM 68.5 °F 49.5 °F 50% 30.09 in 10.0 mi NNE 9.2 mph - N/A   Clear
7:15 PM 67.5 °F 49.3 °F 52% 30.09 in 10.0 mi NE 6.9 mph - N/A   Clear
7:35 PM 66.7 °F 49.6 °F 54% 30.09 in 10.0 mi NE 6.9 mph - N/A   Clear
7:55 PM 65.5 °F 49.8 °F 57% 30.09 in 10.0 mi North 6.9 mph - N/A   Clear
8:15 PM 64.4 °F 50.0 °F 59% 30.10 in 10.0 mi NE 5.8 mph - N/A   Clear
8:35 PM 62.6 °F 50.0 °F 63% 30.10 in 10.0 mi NNE 3.5 mph - N/A   Clear
8:55 PM 60.1 °F 50.2 °F 70% 30.11 in 10.0 mi Calm Calm - N/A   Clear
9:15 PM 57.2 °F 50.2 °F 77% 30.11 in 10.0 mi Calm Calm - N/A   Clear
9:35 PM 55.0 °F 49.6 °F 82% 30.11 in 10.0 mi Calm Calm - N/A   Clear
9:55 PM 53.2 °F 48.7 °F 85% 30.12 in 10.0 mi Calm Calm - N/A   Clear
10:15 PM 50.9 °F 48.7 °F 92% 30.13 in 10.0 mi Calm Calm - N/A   Clear
10:35 PM 50.2 °F 47.8 °F 92% 30.13 in 10.0 mi Calm Calm - N/A   Clear
10:55 PM 49.1 °F 47.3 °F 93% 30.14 in 10.0 mi Calm Calm - N/A   Clear
11:15 PM 50.0 °F 48.2 °F 94% 30.14 in 10.0 mi Calm Calm - N/A   Clear
11:35 PM 48.0 °F 46.2 °F 93% 30.15 in 10.0 mi Calm Calm - N/A   Clear
11:55 PM 47.8 °F 46.4 °F 95% 30.15 in 10.0 mi Calm Calm - N/A   Clear